Back to catalog

CZ-6A DEB

AliveSSO
NORAD 56255·DEBRIS·🇨🇳 China

Launched Nov 11, 2022 from Taiyuan Satellite Launch Center

Loading…

Next Passes (next 24 hours)

TLE

AgingSource: Space-Track

Epoch: Sep 9, 2026, 15:13 UTC

1 56255U 22151ABX 26252.63457002  .00002608  00000-0  16295-2 0  9999
2 56255  98.9290 223.7486 0134186 179.3824 180.7531 14.01226742175839

Track CZ-6A DEB in real time with AllMySat

Download on the App Store